Other Surface Observations
Issued by NWS Tucson, AZ

Current Version | Previous Version | Text Only | Print | Product List | Glossary On
Versions: 1 2 3 4 5 6 7 8 9 10 11 12 13 14 15 16 17 18 19 20 21 22 23 24 25 26 27 28 29 30 31 32 33 34 35 36 37 38 39 40 41 42 43 44 45 46 47 48 49 50
000
SXUS55 KTWC 020715
OSOTWC

WEATHER ROUNDUP FOR SOUTHEAST ARIZONA
NATIONAL WEATHER SERVICE TUCSON AZ
1215 AM MST THU APR 02 2015

AZZ504>506-514-020815-
LOCATION       SKY/WX    TMP DP  RH WIND       PRES   REMARKS
TUCSON         CLEAR     65  18  16 S8        29.96R
DAVIS-MONTHAN  CLEAR     62  19  19 SE6       29.94R
CHILDRENS PARK N/A       69  24  18 NE3               PIMA CO DEQ
ALVERNON/22ND  N/A      N/A N/A N/A N/A               PIMA CO DEQ
CHERRY/GLENN   N/A      N/A N/A N/A N/A               PIMA CO DEQ
TANGERINE      N/A       58 N/A N/A N3                PIMA CO DEQ
CONTL RANCH    N/A       74  20  13 W5                PIMA CO DEQ
GRANT/1ST      N/A       70  22  16 E4                PIMA CO DEQ
CRAYCROFT/22ND N/A      N/A N/A N/A N/A               PIMA CO DEQ
GOLFLINKS/KOLB N/A      N/A N/A N/A N/A               PIMA CO DEQ
AJO/12TH       N/A       69  16  13 S7                PIMA CO DEQ
SAGUARO EAST   N/A      N/A N/A N/A N/A               PIMA CO DEQ
FAIRGROUNDS    N/A       63 N/A N/A S7                PIMA CO DEQ
SAGUARO        N/A       65  19  17 N3G10             *SABINO CYN
SAN CARLOS     N/A       60  28  29 NW6               *SAN CARLOS
GREEN VALLEY   N/A       67  16  14 SW7               PIMA CO DEQ
HORSE CAMP CYN N/A       62  25  24 NW2               *ARAVAIPA CYN
RINCON MTNS    N/A       44  11  26 SW5G11            *NR MANNING CAMP
$$

AZZ509>511-020815-
LOCATION       SKY/WX    TMP DP  RH WIND       PRES   REMARKS
SAFFORD        CLEAR     64  24  21 NW10      29.91S
STRAY HORSE    N/A       49  19  30 W13G29            *
TRAIL CABIN    N/A       53  22  30 W3G10             *N OF GRANVILLE
BLACK HILLS    N/A       65  28  25 CALM              *N OF FT THOMAS
DRY LAKE       N/A       49  22  34 W6G10             *NATANES MTNS
NOON CREEK     N/A       61  17  18 W4G10             *PINALENO MTNS
COLUMBINE      N/A       41   3  20 S11G20            *PINALENO MTNS
GUTHRIE        N/A       58  19  22 W20G34            *SW OF GUTHRIE
$$

AZZ502-503-513-020815-
LOCATION       SKY/WX    TMP DP  RH WIND       PRES   REMARKS
NOGALES        CLEAR     60  25  26 S5        30.02R
SELLS          N/A       62  17  17 SE5               *
SASABE         N/A       55  21  26 SW9               *ALTAR VLY
HOPKINS        N/A       49  17  28 W11G20            *SANTA RITA MTNS
CARR CYN       N/A       57  30  35 NW3               *W OF HEREFORD
$$

AZZ507-508-512-020815-
LOCATION       SKY/WX    TMP DP  RH WIND       PRES   REMARKS
SIERRA VISTA   CLEAR     64  26  23 SW15G26   30.04F
DOUGLAS        CLEAR     62  36  37 W12       30.02S
EMPIRE MTNS    N/A       56  27  32 S9G12             *LAS CIENEGAS NCA
MULESHOE RANCH N/A       61  17  18 NW3               *PRESERVE
HEADQUARTERS   N/A       61  24  24 S5G15             *CHIRICAHUA MTNS
$$

.............................NOTES.............................
THIS IS AN AUTOMATED COLLECTIVE WITH MINIMAL QUALITY CONTROL.
PIMA CO DEQ SITES HAVE NONSTANDARD WIND SENSOR HEIGHTS.
PIMA CO DEQ SITES DO NOT REPORT WIND GUSTS.
* INDICATES WIND SENSORS LOCATED AT 20 FEET INSTEAD OF 33 FEET.
..............................KEY..............................
SKY/WX - SKY CONDITION/WEATHER
TMP    - TEMPERATURE IN FAHRENHEIT
DP     - DEWPOINT IN FAHRENHEIT
RH     - RELATIVE HUMIDITY IN PERCENT
WIND   - DIRECTION AND SPEED IN MILES PER HOUR (MPH)
VRB    - VARIABLE WIND DIRECTION
PRES   - MEAN SEA LEVEL PRESSURE IN INCHES OF MERCURY
         F - FALLING PRESSURE   R - RISING PRESSURE
         S - STEADY PRESSURE
VSB    - VISIBILITY IN MILES
HX     - HEAT INDEX IN FAHRENHEIT
WCI    - WIND CHILL INDEX IN FAHRENHEIT
N/A    - NOT AVAILABLE
AFB    - AIR FORCE BASE
         DAVIS-MONTHAN IS DAVIS-MONTHAN AIR FORCE BASE
CYN    - CANYON
MTNS   - MOUNTAINS
NCA    - NATIONAL CONSERVATION AREA
NR     - NEAR
VLY    - VALLEY
CONTL  - CONTINENTAL
PIMA CO DEQ - PIMA COUNTY DEPT OF ENVIRONMENTAL QUALITY



USA.gov is the U.S. government's official web portal to all federal, state and local government web resources and services.